ROMMA est une association bénévole à but non lucratif. Votre soutien est indispensable : ADHERER à ROMMA ou FAIRE un DON

Voiron - (38, Isère)

Voironnais (300 m)   Longitude: 05° 35' E   Latitude: 45° 23' N Station partenaire n°109
 

Détail journalier du     <<     >>

Température Precipitation Humidité Pression Vent Dir Rafale Dir. rafale Ensol.
Heure (°C) (mm) (%) (hPa) (km/h) (km/h) (min)
01:00 13.808310248ENE27ENE0
02:00 13.708410254NNE19SE0
03:00 13.608710243NO8NNO0
04:00 13.208610252SE6SSE0
05:00 12.608610252S5S0
06:00 11.508810252S5S0
07:00 11.708510261SSO5SSO0
08:00 14.507510261SSO5SSO60
09:00 15.206810263SSE11SSE60
10:00 16.606410263S13SO60
11:00 18.206010256S15SSE60
12:00 20.304910254SSE15SSE60
13:00 21.903710259N21NE60
14:00 21.8031102411NO26N60
15:00 23.1031102411N26N60
16:00 23.0031102314N27NNO60
17:00 23.9032102311NO21NO60
18:00 23.9031102311NNO24NNO60
19:00 23.8030102311NNO23N60
20:00 23.1030102311NNO23NNO60
21:00 21.203510236N18N30
22:00 19.304110232N8NE0
23:00 17.904610232NNO6N0
minuit 16.3052102405NNO0

Graphique du 08-06-2019

 

Serveur OMMA